Location: Altmatt
(47.1333°N, 8.7000°E)
Time: 19:20:23
(UTC+00:00)

Terra - Pass Details

Date: 13 July 2020
Orbit: 701 x 703 km, 98.2° (Epoch: 12 August)

Event Time Altitude Azimuth Distance (km) Brightness Sun altitude
Exits shadow 23:00:14 - 245° (WSW) 2,409 4.4 -20.9°
Reaches altitude 10° 23:02:12 10° 266° (W) 2,174 4.4 -20.9°
Maximum altitude 23:02:50 10° 274° (W) 2,158 4.5 -20.9°
Drops below altitude 10° 23:03:29 10° 282° (WNW) 2,176 4.6 -20.9°
Sets 23:08:14 0° 325° (NW) 3,103 6.2 -21.0°
